Weather in Kobyakovo

Russia / Republic of Khakassia     54°47′50″N   89°46′28″E
temp.,
°C
wind,
m/s
gust,
m/s
humid.,
%
clouds,
%
prec.,
mm/h
press.,
hPa
HPBL,
m
27 january, thu
thu2701:00−16ssw0197100 0.0 10329
04:00−16sw1197100 0.0 10329
07:00−17w009799 0.0 10359
10:00−20wsw119895 0.0 10379
13:00−13s118595 0.0 103682
16:00−14e11915 0.0 10369
19:00−20s1110037 0.0 10399
22:00−23wsw119925 0.0 10419
28 january, fri
fri2801:00−25w119913 0.0 10419
04:00−26w1110059 0.0 10419
07:00−26w119955 0.0 10419
10:00−25wsw119912 0.0 10419
13:00−17se11885 0.0 103878
16:00−17ese11935 0.0 10379
19:00−24ssw111005 0.0 10389
22:00−26ssw1110083 0.0 10399
29 january, sat
sat2901:00−24sw11100100 0.0 10389
04:00−26ssw1110066 0.0 10389
07:00−27ssw0010048 0.0 10389
10:00−26s019988 0.0 10399
13:00−18se1191100 0.0 103688
16:00−17ese1193100 0.0 103634
19:00−20se1199100 0.0 103710
22:00−24sse1110055 0.0 10389
30 january, sun
sun3001:00−26s0110078 0.0 10389
04:00−26s1110079 0.0 10399
07:00−27sse1110076 0.0 10389
10:00−26s1110072 0.0 103814
13:00−19se11935 0.0 1035100
16:00−17ese11935 0.0 103413
19:00−23sse111005 0.0 10369
22:00−25s1110068 0.0 10369
31 january, mon
mon3101:00−26sse1110079 0.0 10369
04:00−26s0110048 0.0 10359
07:00−26s0110051 0.0 10359
10:00−25sse019934 0.0 103610
13:00−17se11915 0.0 103480
16:00−16se11935 0.0 103310
19:00−23sse111005 0.0 10369
22:00−24ssw1110042 0.0 10379